Regional Weather Roundup
Issued by NWS Sterling, VA

Home | Current Version | Previous Version | Text Only | Print | Product List | Glossary Off
Versions: 1 2 3 4 5 6 7 8 9 10 11 12 13 14 15 16 17 18 19 20 21 22 23 24 25 26 27

000
ASUS41 KLWX 290011
RWRLWX

REGIONAL WEATHER ROUNDUP
NATIONAL WEATHER SERVICE BALTIMORE MD/WASHINGTON DC
800 PM EDT SUN MAY 28 2017

Note: "FAIR" indicates few or no clouds below 12,000 feet
with no significant weather and/or obstructions to visibility.
 TC=TEMPERATURE CELSIUS

 * =Non NWS site. Station does not report precipitation (e.g. rain,
    snow, etc.), thunder, or fog.

DCZ001-MDZ009-015-VAZ040>042-051-053>054-290100-
WASHINGTON METRO

CITY           SKY/WX    TMP DP  RH WIND       PRES   REMARKS
WASHINGTON NAT LGT RAIN  68  65  90 NE6       29.85R
DULLES         CLOUDY    66  63  90 E5        29.84S
ANDREWS AFB    CLOUDY    66  64  94 NE3       29.83S
FT BELVOIR     CLOUDY    68  64  85 CALM      29.83S
QUANTICO       CLOUDY    69  67  93 NE7       29.84S
COLLEGE PARK*  CLOUDY    65  64  94 CALM      29.84S
LEESBURG*      CLOUDY    68  64  88 E3        29.86S
MANASSAS*      CLOUDY    68  64  87 E3        29.84S
GAITHERSBURG*  CLOUDY    65  63  93 CALM      29.86S

$$

MDZ006>007-011-014-290100-
BALTIMORE METRO

CITY           SKY/WX    TMP DP  RH WIND       PRES   REMARKS
BWI AIRPORT    LGT RAIN  65  65 100 E8        29.84S
MD SCIENCE CTR   N/A     67  64  90 MISG      29.85R
MARTIN STATE   LGT RAIN  66  66 100 NE3       29.86S
ANNAPOLIS      CLOUDY    67  66  97 E8        29.84S
FORT MEADE*    CLOUDY    63  61  94 E5        29.87R

$$

MDZ012-015-019>023-290100-
MARYLAND EASTERN SHORE

CITY           SKY/WX    TMP DP  RH WIND       PRES   REMARKS
OCEAN CITY     LGT RAIN  62  61  96 E8        29.82F FOG
SALISBURY      CLOUDY    64  64 100 NE6       29.81F
BAY BRIDGE AP* CLOUDY    64  63  94 E6        29.85R
CAMBRIDGE*     CLOUDY    64  64 100 E6        29.83R
EASTON*        CLOUDY    64  63  94 E7        29.87S FOG

$$

MDZ017>025-290100-
SOUTHERN MARYLAND

CITY           SKY/WX    TMP DP  RH WIND       PRES   REMARKS
PATUXENT RIVER CLOUDY    68  68 100 E6        29.81S
ST INIGOES     CLOUDY    68  67  96 E5        29.81S
LEONARDTOWN*   CLOUDY    68  64  88 CALM      29.84S

$$

MDZ003>005-290100-
NORTH CENTRAL MARYLAND

CITY           SKY/WX    TMP DP  RH WIND       PRES   REMARKS
FREDERICK*     CLOUDY    72  66  83 CALM      29.87S
HAGERSTOWN APT LGT RAIN  68  63  84 CALM      29.85S
WESTMINSTER*   CLOUDY    66  64  94 E3        29.86R

$$

MDZ501>502-290100-
WESTERN MARYLAND

CITY           SKY/WX    TMP DP  RH WIND       PRES   REMARKS
OAKLAND*         N/A     63  59  88 SW8       29.88R
CUMBERLAND*    CLOUDY    64  64 100 CALM      29.87S

$$

VAZ025>031-290100-
SHENANDOAH VALLEY

CITY           SKY/WX    TMP DP  RH WIND       PRES   REMARKS
WINCHESTER*    CLOUDY    63  63 100 E5        29.84S
FRONT ROYAL*   CLOUDY    64  64 100 CALM      29.83S
LURAY*         DRIZZLE   66  64  94 NE3       29.84S
NEW MARKET*    CLOUDY    67  66  94 CALM      29.83S
STAUNTON*      LGT RAIN  65  64  97 CALM      29.86R
WAYNESBORO*    CLOUDY    64  64 100 CALM      29.85S

$$

WVZ021-048>050-054>055-290100-
EASTERN WEST VIRGINIA PANHANDLE

CITY           SKY/WX    TMP DP  RH WIND       PRES   REMARKS
MARTINSBURG    CLOUDY    66  62  87 CALM      29.84R
PETERSBURG*    HVY RAIN  68  67  98 SE6       29.83S VSB 1/2

$$

VAZ036>039-050-290100-
CENTRAL FOOTHILLS

CITY           SKY/WX    TMP DP  RH WIND       PRES   REMARKS
CHARLOTTESVILL LGT RAIN  68  66  93 CALM      29.83S FOG
CULPEPER*      CLOUDY    67  67  97 N3        29.85R
ORANGE*        DRIZZLE   64  64 100 CALM      29.83S
GORDONSVILLE*  CLOUDY    66  66  99 CALM      29.83S
WARRENTON*     CLOUDY    68  64  85 N3        29.83S

$$

VAZ055>057-290100-
NORTH AND CENTRAL PIEDMONT

CITY           SKY/WX    TMP DP  RH WIND       PRES   REMARKS
FREDERICKSBRG* DRIZZLE   69  69 100 CALM      29.82S
STAFFORD*      CLOUDY    67  67 100 CALM      29.87S

$$

NCZ024-NYZ072-PAZ021-071-VAZ022-071-290100-
OTHER REGIONAL OBSERVATIONS

CITY           SKY/WX    TMP DP  RH WIND       PRES   REMARKS
NEW YORK CITY  MOCLDY    64  50  60 CALM      29.97R
PHILADELPHIA   LGT RAIN  65  58  78 E12       29.89S
PITTSBURGH     MOCLDY    76  63  64 SW9       29.75R
ROANOKE        CLOUDY    75  62  64 SW5       29.85R
RICHMOND       CLOUDY    75  69  81 N5        29.81R
RALEIGH        MOCLDY    80  67  64 W3        29.81F

$$

ANZ530>537-290100-
MARINE OBSERVATIONS

STATION/POSITION TIME  TEMP    WIND        PRES
                       AIR SEA DIR/SP/G
                 (UTC) (F)     (DEG/KT/KT) (MB)
THOMAS PT LIGHT  0000   65 65   60/  8/  9   N/A
BALT KEY BRIDGE  2348   65      90/  9/ 11 1010.5R
COVE POINT       2348   67      70/  8/ 10 1010.3S
LEWISETTA        2348   67 71   90/  6/  7 1009.6S
SOLOMONS ISLAND  2348   68 69   90/  6/  7   N/A
PINEY POINT      2348          100/  6/  7   N/A

$$





USA.gov is the U.S. government's official web portal to all federal, state and local government web resources and services.